This is the latest recevied weather packets stored in our database for station/object KG5APU. If no packets are shown the sender has not sent any weather packets the latest 10 day(s).
| Time | Temp. | Humidity | Pressure | Rain* | Wind** | Luminosity | Snow |
|---|---|---|---|---|---|---|---|
| 1788158851 | 84° F | 63% | 761.5 mmHg | 0 in | - | 0 W/m² | - |
| 1788158247 | 84° F | 63% | 761.5 mmHg | 0 in | - | 0 W/m² | - |
| 1788157648 | 84° F | 63% | 761.4 mmHg | 0 in | - | 0 W/m² | - |
| 1788157046 | 83° F | 65% | 761.3 mmHg | 0 in | - | 0 W/m² | - |
| 1788156444 | 82° F | 68% | 761.3 mmHg | 0 in | - | 0 W/m² | - |
| 1788155844 | 82° F | 70% | 761.4 mmHg | 0 in | - | 0 W/m² | - |
| 1788155245 | 82° F | 71% | 761.3 mmHg | 0 in | - | 0 W/m² | - |
| 1788154645 | 81° F | 73% | 761.5 mmHg | 0 in | - | 0 W/m² | - |
| 1788154043 | 80° F | 71% | 761.6 mmHg | 0 in | - | 0 W/m² | - |
| 1788153441 | 80° F | 69% | 761.4 mmHg | 0 in | - | 0 W/m² | - |
| 1788152840 | 80° F | 67% | 761.3 mmHg | 0 in | - | 0 W/m² | - |
| 1788152240 | 81° F | 67% | 761.3 mmHg | 0 in | - | 0 W/m² | - |
| 1788151636 | 81° F | 68% | 761.2 mmHg | 0 in | - | 0 W/m² | - |
| 1788151032 | 81° F | 66% | 761.3 mmHg | 0 in | - | 0 W/m² | - |
| 1788150432 | 82° F | 64% | 761.2 mmHg | 0 in | - | 0 W/m² | - |
| 1788149828 | 83° F | 60% | 761.1 mmHg | 0 in | - | 0 W/m² | - |
| 1788149223 | 82° F | 60% | 761.3 mmHg | 0 in | - | 0 W/m² | - |
| 1788148621 | 83° F | 59% | 761.5 mmHg | 0 in | - | 0 W/m² | - |
| 1788148020 | 83° F | 59% | 761.1 mmHg | 0 in | - | 0 W/m² | - |
| 1788147417 | 84° F | 58% | 761.2 mmHg | 0 in | - | 0 W/m² | - |
| 1788146817 | 84° F | 58% | 761.1 mmHg | 0 in | - | 0 W/m² | - |
| 1788146213 | 85° F | 56% | 761 mmHg | 0 in | - | 0 W/m² | - |
| 1788145611 | 85° F | 57% | 761.1 mmHg | 0 in | - | 0 W/m² | - |
| 1788145009 | 86° F | 57% | 761 mmHg | 0 in | - | 0 W/m² | - |
| 1788144407 | 87° F | 56% | 760.9 mmHg | 0 in | - | 0 W/m² | - |
* Rain latest hour (hover to see other rain measurements)
** Current wind speed in m/s (hover to see current wind gust speed)